Regional Weather Roundup
Issued by NWS San Diego, CA

Home | Current Version | Previous Version | Text Only | Print | Product List | Glossary On
Versions: 1 2 3 4 5 6 7 8 9 10 11 12 13 14 15 16 17 18 19 20 21 22 23 24 25 26 27
000
ASUS46 KSGX 290711
RWRSGX

SAN DIEGO HOURLY WEATHER ROUNDUP
NATIONAL WEATHER SERVICE SAN DIEGO CA
1200 AM PDT SUN MAY 29 2016

NOTE: "FAIR" INDICATES FEW OR NO CLOUDS BELOW 12,000 FEET WITH NO
SIGNIFICANT WEATHER AND/OR OBSTRUCTIONS TO VISIBILITY.

CAZ042-043-060-061-PZZ750-775-290800-

GREATER SAN DIEGO AREA

CITY           SKY/WX    TMP DP  RH WIND       PRES   REMARKS
LINDBERGH FLD  CLOUDY    62  55  77 CALM      29.99S
POINT LOMA       N/A     59  53  80 SW7         N/A
NATIONAL CITY    N/A     62  58  87 CALM      29.99S
CHULA VISTA      N/A     60  58  92 W1        29.91S
IMPERIAL BEACH CLOUDY    63  56  78 SW3       29.98F
BROWN FIELD    CLOUDY    58  57  97 CALM      29.97S FOG
MIRAMAR MCAS   CLOUDY    62  56  80 CALM      29.97F
MONTGOMERY FLD CLOUDY    60  56  86 CALM      29.97F

$$

NORTH SAN DIEGO COUNTY

CITY           SKY/WX    TMP DP  RH WIND       PRES   REMARKS
CAMP PENDLETON CLOUDY    62  55  77 S5        29.97S
OCEANSIDE AP   CLOUDY    62  54  74 W3        29.97S
OCEANSIDE HBR    N/A     62  57  82 SW3       30.00S
VISTA            N/A     59  55  85 CALM      29.95F
CARLSBAD       CLOUDY    60  56  86 W3        29.97S
DEL MAR          N/A     60  57  88 CALM      30.00S
LA JOLLA SCRIP   N/A     60  57  89 SW2       29.97S
FALLBROOK        N/A     60  58  96 CALM      29.95F
ESCONDIDO        N/A     59  56  88 W3        29.99S
SAN MARCOS       N/A     58  52  79 CALM      29.95F
POWAY            N/A     59  56  89 CALM      29.99S

$$

EAST SAN DIEGO COUNTY

CITY           SKY/WX    TMP DP  RH WIND       PRES   REMARKS
RAMONA         CLOUDY    56  54  93 W5        29.97S FOG
SANTEE LAKES     N/A     59  57  91 CALM      29.96F
LA MESA          N/A     58  56  94 CALM      29.91F
DESCANSO N       N/A     53  51  94 CALM      29.82S
MT. LAGUNA OBS   N/A     55  37  50 CALM      29.64F
CAMPO            N/A     55  52  89 SW6       29.94F

$$

ORANGE COUNTY AND THE LOS ANGELES BASIN

CITY           SKY/WX    TMP DP  RH WIND       PRES   REMARKS
JOHN WAYNE AP  CLOUDY    62  54  74 S7        29.97S
LAKE FOREST FR   N/A     59  52  78 CALM      29.85S
HUNTINGTON BCH   N/A     62  57  84 SW3       29.99S
LOS ALAMITOS   CLOUDY    62  55  79 SW5       29.97S
FULLERTON      CLOUDY    63  55  75 SW5       29.96S
LONG BEACH     CLOUDY    62  55  77 SW7       29.97S
L.A. AP        CLOUDY    60  53  77 NW6       29.97S
L.A. DOWNTOWN  CLOUDY    61  53  75 W3        29.97S

$$

THE INLAND EMPIRE

CITY           SKY/WX    TMP DP  RH WIND       PRES   REMARKS
CORONA         CLOUDY    61  55  81 W6        29.97S
CHINO          CLOUDY    62  54  74 W9        29.98R
ONTARIO        MOCLDY    61  53  75 W9        29.96S
RIVERSIDE AP   CLOUDY    61  53  75 W8        29.97R
MORENO VALLEY    N/A     59  57  96 W1        28.07S
MARCH ARB      CLOUDY    59  57  93 NW6       29.97S
HORSETHIEF CYN   N/A     57  49  73 CALM      29.98S
PERRIS           N/A     59  56  90 CALM      29.95S
HEMET EAST       N/A     57  52  81 CALM      29.85S
FRENCH VALLEY  CLOUDY    59  54  82 S7        29.97F
TEMECULA         N/A     59  57  92 S2        29.94F

$$

SAN BERNARDINO AND RIVERSIDE COUNTY MOUNTAINS

CITY           SKY/WX    TMP DP  RH WIND       PRES   REMARKS
BIG BEAR AP    CLEAR     37  30  75 CALM      30.12S
PINE COVE        N/A     52  38  58 CALM      29.86F

$$

SOUTHERN DESERT INCLUDING THE COACHELLA VALLEY

CITY           SKY/WX    TMP DP  RH WIND       PRES   REMARKS
PALM SPRINGS   CLEAR     74  53  48 NW9       29.84R
THOUSAND PALMS   N/A     73  53  50 NW14      29.80S
PALM DESERT      N/A     74  55  51 CALM      30.21S
THERMAL        CLEAR     76  52  43 NW8       29.78S
BLYTHE         CLEAR     80  36  20 S9        29.80S
IMPERIAL AP    CLEAR     70  43  37 CALM      29.77S
EL CENTRO NAS  CLEAR     75  41  29 CALM      29.79S
YUMA AZ        CLEAR     75  41  29 SE13      29.80
MEXICALI       CLEAR     70  50  49 E7        29.79S

$$

UPPER DESERT

CITY           SKY/WX    TMP DP  RH WIND       PRES   REMARKS
VICTORVILLE AP CLEAR     63  45  51 S6        29.95S
HESPERIA         N/A     60  47  61 W5        29.96F
PALMDALE       CLEAR     67  39  35 SW12      29.93S
LANCASTER      CLEAR     67  42  40 W10       29.91S
EDWARDS AFB    CLEAR     66  35  31 S13       29.89S
DAGGETT        CLEAR     75  42  30 NW6       29.87S
29 PALMS N     CLEAR     75  37  25 VRB7      29.95R
NEEDLES        CLEAR     84  34  16 W13       29.80S

$$

REGIONAL REPORTS

CITY           SKY/WX    TMP DP  RH WIND       PRES   REMARKS
SANTA BARBARA  CLOUDY    59  54  83 CALM      29.96R
SANDBERG       PTCLDY    64  39  39 NW8       30.04S
LAS VEGAS NV   CLEAR     78  26  14 S3        29.82R
PHOENIX AZ     CLEAR     82  33  17 W8        29.84R
TIJUANA        CLOUDY    59  54  82 W6        30.00S FOG
ENSENADA NW      N/A     60  32  34 NW6       29.96S

$$

OFFSHORE ISLANDS

CITY           SKY/WX    TMP DP  RH WIND       PRES   REMARKS
CATALINA ARPT  CLOUDY    54  52  93 NE5       29.98F
SAN NICOLAS IS CLOUDY   N/A N/A N/A S5        29.97R

$$

MARINE AND OFFSHORE BUOY REPORTS

STATION/POSITION SKY/WX   TEMP    WIND        PRES    SWELL
                          AIR SEA DIR/SP/G            HT/PER/DIR
                          (F)     (DEG/KT/KT) (MB)    (FT/S/D)
TANNER BANKS               59 61  230/  4/  6 1014.6S   7/320/10
S CLEMENTE BASIN           59 62  210/  4/  6 1015.0S   3/290/ 9
SAN NICOLAS IS.               58                N/A     3/320/11
SO. S. ROSA ISLA           57 58  160/  2/  4 1014.7R   7/320/10
W. S. BARBARA CH           56 55  180/  2/  4 1014.0R   5/330/10
M. S. BARBARA CH           57 60  250/  2/  4 1014.9R
S. MONICA BASIN            59 63  160/  4/  6 1015.1F   3/190/15
S PEDRO CHANNEL               62                N/A     2/160/15
OCEANSIDE OFFSHR              65                N/A     2/190/15
TORREY PINES OTR              65                N/A     2/190/14
LA JOLLA 1                 62 66  280/  1/  3 1014.9R
SAN DIEGO BAY                 68              1015.3S
POINT LOMA SOUTH              66                N/A     3/180/14

$$





USA.gov is the U.S. government's official web portal to all federal, state and local government web resources and services.